Regional Weather Roundup
Issued by NWS Northern Indiana

Home | Current Version | Previous Version | Text Only | Print | Product List | Glossary On
Versions: 1 2 3 4 5 6 7 8 9 10 11 12 13 14 15 16 17 18 19 20 21 22 23 24 25 26 27 28 29 30 31 32 33 34 35 36 37 38 39 40 41 42 43 44 45 46 47 48 49 50
000
ASUS43 KIWX 261210
RWRIWX

KIWX WEATHER ROUNDUP
NATIONAL WEATHER SERVICE NORTHERN INDIANA
800 AM EDT THU APR 26 2018

NOTE: "FAIR" INDICATES FEW OR NO CLOUDS BELOW 12,000 FEET WITH NO
SIGNIFICANT WEATHER AND/OR OBSTRUCTIONS TO VISIBILITY.

* THESE STATIONS ARE NOT UNDER NWS QUALITY CONTROL. THEY ALSO MAY NOT
  REPORT WEATHER SUCH AS PRECIPITATION OR FOG.

INZ001>027-261300-
NORTHERN INDIANA

CITY           SKY/WX    TMP DP  RH WIND       PRES   REMARKS
GARY*          MOSUNNY   36  36 100 MISG      29.97R
VALPARAISO     FAIR      40  34  79 N5        29.96R
6HR MIN TEMP:  35; 6HR MAX TEMP:  40;

MICHIGAN CITY* FAIR      32  32 100 CALM      29.97S
LAPORTE*       FAIR      38  35  90 N6        29.96R
6HR MIN TEMP:  32; 6HR MAX TEMP:  38;

KNOX*          FAIR      32  30  93 CALM      29.95R
SOUTH BEND     FAIR      35  32  88 N6        29.96R WCI  30
6HR MIN TEMP:  29; 6HR MAX TEMP:  35;

ELKHART*       FAIR      32  32 100 CALM      29.95R
GOSHEN         FAIR      35  33  92 CALM      29.94R
6HR MIN TEMP:  31; 6HR MAX TEMP:  36;

MONTICELLO*    FAIR      32  31  95 NW3       29.95R
6HR MIN TEMP:  28; 6HR MAX TEMP:  33;

LOGANSPORT*    FAIR      34  32  93 N3        29.95R
ROCHESTER*     FAIR      36  34  93 CALM      29.95R
WARSAW*        FAIR      34  32  93 CALM      29.94R
AUBURN*        FAIR      37  37 100 CALM      29.95R FOG
FORT WAYNE     FAIR      40  37  89 E5        29.94R
6HR MIN TEMP:  34; 6HR MAX TEMP:  40;

HUNTINGTON*    FAIR      36  33  88 CALM      29.93S
6HR MIN TEMP:  32; 6HR MAX TEMP:  38;

PERU/GRISSOM   FAIR      35  35 100 CALM      29.92R
6HR MIN TEMP:  31; 6HR MAX TEMP:  36;

MARION*        FAIR      34  31  90 CALM      29.94R
6HR MIN TEMP:  28; 6HR MAX TEMP:  64;


$$
INZ028>050-261300-
CENTRAL INDIANA

CITY           SKY/WX    TMP DP  RH WIND       PRES   REMARKS
LAFAYETTE      FAIR      33  31  92 CALM      29.95R
6HR MIN TEMP:  29; 6HR MAX TEMP:  37;

KOKOMO*        FAIR      36  31  82 CALM      29.94R
6HR MIN TEMP:  30; 6HR MAX TEMP:  39;

MUNCIE*        FAIR      38  31  76 CALM      29.92R
6HR MIN TEMP:  34; 6HR MAX TEMP:  41;

INDIANAPOLIS   FAIR      39  31  72 N6        29.92S
6HR MIN TEMP:  38; 6HR MAX TEMP:  43;


$$
MIZ043>046-050>051-056>058-064>065-071>073-077>080-261300-
SOUTHWEST LOWER MICHIGAN

CITY           SKY/WX    TMP DP  RH WIND       PRES   REMARKS
BATTLE CREEK   FAIR      37  35  92 CALM      29.95R
6HR MIN TEMP:  33; 6HR MAX TEMP:  39;

BENTON HARBOR  FAIR      33  30  88 CALM      29.96R
6HR MIN TEMP:  29; 6HR MAX TEMP:  36;

COLDWATER*     CLOUDY    41  41 100 CALM      29.95R FOG
6HR MIN TEMP:  33; 6HR MAX TEMP:  41;

HILLSDALE*     CLOUDY    41  37  87 CALM      29.94R FOG
HOLLAND        FAIR      36  32  85 CALM      29.96R
6HR MIN TEMP:  33; 6HR MAX TEMP:  40;

GRAND RAPIDS   FAIR      38  33  82 CALM      29.96R
6HR MIN TEMP:  34; 6HR MAX TEMP:  41;

KALAMAZOO      FAIR      38  34  85 CALM      29.96R
6HR MIN TEMP:  33; 6HR MAX TEMP:  39;

STURGIS*       FAIR      37  36  97 CALM      29.94R
6HR MIN TEMP:  32; 6HR MAX TEMP:  38;

THREE RIVERS*  FAIR      39  35  85 CALM      29.96R
6HR MIN TEMP:  32; 6HR MAX TEMP:  39;


$$
OHZ001>008-015>018-024>025-261300-
NORTHWEST OHIO

CITY           SKY/WX    TMP DP  RH WIND       PRES   REMARKS
WAUSEON*       FOG       37  37 100 CALM      29.96R VSB<1/4
DEFIANCE       FAIR      42  39  89 E3        29.95R
6HR MIN TEMP:  39; 6HR MAX TEMP:  43;

FINDLAY        FAIR      41  38  89 SE5       29.94R
6HR MIN TEMP:  39; 6HR MAX TEMP:  44;

TOLEDO EXPRESS FAIR      39  39 100 CALM      29.95R FOG
6HR MIN TEMP:  35; 6HR MAX TEMP:  42;

TOLEDO METCALF FAIR      41  39  93 CALM      29.96S FOG
6HR MIN TEMP:  35; 6HR MAX TEMP:  43;

LIMA           FAIR      41  39  93 E8        29.93R
6HR MIN TEMP:  39; 6HR MAX TEMP:  43;


$$
AND FOR LAKE MICHIGAN COASTAL AND OPEN LAKE BUOY OBSERVATIONS

STATION/POSITION TEMP    WIND        PRES    VSBY  WAVE
                 AIR SEA DIR/SP/G                  HT/PER
                 (F)     (DEG/KT/KT) (MB)    (MI)  (FT/S)
CALUMET HARBOR    40     270/  3/  5 1014.1R
MICHIGAN CITY     39     360/  8/  9   N/A
BURNS HARBOR      40      20/  6/  7 1015.2R
SAINT JOSEPH      40      30/  2/  3 1015.2
4 MI NW BRIDGMAN  41 42  130/  6/  8 1015.5          2/ 5

$$
&&




USA.gov is the U.S. government's official web portal to all federal, state and local government web resources and services.